Weather in Kalinovka

Russia / Republic of Buryatia     51°16′55″N   107°46′43″E
temp.,
°C
wind,
m/s
gust,
m/s
humid.,
%
clouds,
%
prec.,
mm/h
press.,
hPa
HPBL,
m
19 may, wed
wed1923:00+9ese005891 0.0 100210
02:00+7ne1168100 0.0 100010
05:00+8n1170100 0.1 100024
08:00+9n3568100 0.1 1002799
11:00+11nnw4659100 0.1 10031186
14:00+13nnw444399 0.1 10021420
17:00+14nw3339100 0.0 10011555
20:00+11nw1150100 0.0 100110
20 may, thu
thu2023:00+9nne2255100 0.0 100114
02:00+9ene2252100 0.0 100032
05:00+9ese2355100 0.1 997100
08:00+11ese2256100 0.1 996342
11:00+15sw234798 0.0 9951068
14:00+20nw2236100 0.0 9931820
17:00+20ne653548 0.0 9911406
20:00+13n71259100 0.4 993780
21 may, fri
fri2123:00+10nne5872100 1.1 994465
02:00+7n4689100 1.4 995272
05:00+5nnw4787100 0.0 996392
08:00+3nnw4684100 1.9 1000324
11:00+3nnw3478100 0.1 1003449
14:00+5nnw4572100 0.1 1004653
17:00+5nw3584100 0.6 1006733
20:00+4nw4882100 0.6 1009679
22 may, sat
sat2223:00+3wsw2383100 0.1 1011403
02:00+2w3485100 0.2 1011368
05:00+1w2692100 0.1 1013310
08:00+3nw3773100 0.1 1013945
11:00+7nnw584794 0.1 10121788
14:00+9nnw10123516 0.1 10132147
17:00+10nnw9123385 0.0 10132542
20:00+7nw51043100 0.0 1015680
23 may, sun
sun2323:00+4wnw5115698 0.0 1015418
02:00+3wnw81575100 0.1 1017542
05:00+2nw91685100 0.0 1018578
08:00+4nw91471100 0.0 1019762
11:00+9nw81143100 0.1 10171759
14:00+11nw8935100 0.3 10162549
17:00+10nw7842100 0.3 10161974
20:00+7nw475216 0.4 1016263